Location: Hamilton
(37.7830°S, 175.2830°E)
Time: 09:45:48
(UTC+13:00)

Cosmos 1805 Rocket - Pass Details

Date: 24 January 2019
Orbit: 606 x 630 km, 82.5° (Epoch: 20 October)

Event Time Altitude Azimuth Distance (km) Brightness Sun altitude
Rises 21:11:38 0° 191° (S) 2,904 7.7 -6.6°
Reaches altitude 10° 21:13:53 10° 193° (SSW) 1,989 6.9 -7.0°
Maximum altitude 21:18:15 67° 274° (W) 670 4.0 -7.8°
Drops below altitude 10° 21:22:33 10° 357° (N) 1,959 5.8 -8.5°
Sets 21:24:46 0° 359° (N) 2,856 6.7 -8.8°
